Time,TemperatureF,DewpointF,PressureIn,WindDirection,WindDirectionDegrees,WindSpeedMPH,WindSpeedGustMPH,Humidity,HourlyPrecipIn,Conditions,Clouds,dailyrainin,SoftwareType,DateUTC
2013-02-28 00:00:00,29.6,21.4,30.11,NNE,15,2.0,5.0,71,0.00,,---,0.00,VWS V14.01,2013-02-28 06:00:00,
2013-02-28 00:05:00,29.6,21.4,30.11,NNE,16,0.0,2.0,71,0.00,,---,0.00,VWS V14.01,2013-02-28 06:05:00,
2013-02-28 00:10:00,29.6,21.4,30.11,NNE,16,0.0,3.0,71,0.00,,---,0.00,VWS V14.01,2013-02-28 06:10:00,
2013-02-28 00:15:00,29.6,21.4,30.10,NNE,15,0.0,3.0,71,0.00,,---,0.00,VWS V14.01,2013-02-28 06:15:00,
2013-02-28 00:20:00,29.5,21.3,30.11,North,5,0.0,5.0,71,0.00,,---,0.00,VWS V14.01,2013-02-28 06:20:00,
2013-02-28 00:25:00,29.5,21.3,30.11,North,11,0.0,5.0,71,0.00,,---,0.00,VWS V14.01,2013-02-28 06:25:00,
2013-02-28 00:30:00,29.5,21.3,30.11,North,11,2.0,5.0,71,0.00,,---,0.00,VWS V14.01,2013-02-28 06:30:00,
2013-02-28 00:35:00,29.5,21.3,30.11,NNE,22,1.0,4.0,71,0.00,,---,0.00,VWS V14.01,2013-02-28 06:35:00,
2013-02-28 00:40:00,29.6,21.4,30.11,NNE,22,0.0,4.0,71,0.00,,---,0.00,VWS V14.01,2013-02-28 06:40:00,
2013-02-28 00:45:00,29.5,21.3,30.11,NNE,22,0.0,4.0,71,0.00,,---,0.00,VWS V14.01,2013-02-28 06:45:00,
2013-02-28 00:50:00,29.5,21.3,30.11,NNE,28,0.0,4.0,71,0.00,,---,0.00,VWS V14.01,2013-02-28 06:50:00,
2013-02-28 00:55:00,29.5,21.3,30.11,NNE,28,0.0,4.0,71,0.00,,---,0.00,VWS V14.01,2013-02-28 06:55:00,
2013-02-28 01:00:00,29.5,21.3,30.11,NNE,29,0.0,5.0,71,0.00,,---,0.00,VWS V14.01,2013-02-28 07:00:00,
2013-02-28 01:05:00,29.5,21.3,30.11,NNE,29,0.0,0.0,71,0.00,,---,0.00,VWS V14.01,2013-02-28 07:05:00,
2013-02-28 01:10:00,29.4,21.2,30.11,NNE,29,0.0,2.0,71,0.00,,---,0.00,VWS V14.01,2013-02-28 07:10:00,
2013-02-28 01:15:00,29.4,21.2,30.11,NNE,22,2.0,5.0,71,0.00,,---,0.00,VWS V14.01,2013-02-28 07:15:00,
2013-02-28 01:20:00,29.4,21.2,30.11,NNE,28,1.0,6.0,71,0.00,,---,0.00,VWS V14.01,2013-02-28 07:20:00,
2013-02-28 01:25:00,29.4,21.2,30.11,NNE,28,0.0,6.0,71,0.00,,---,0.00,VWS V14.01,2013-02-28 07:25:00,
2013-02-28 01:30:00,29.4,20.8,30.11,NNE,27,0.0,6.0,70,0.00,,---,0.00,VWS V14.01,2013-02-28 07:30:00,
2013-02-28 01:35:00,29.3,21.1,30.11,NNE,27,0.0,1.0,71,0.00,,---,0.00,VWS V14.01,2013-02-28 07:35:00,
2013-02-28 01:40:00,29.3,21.1,30.11,NNE,32,0.0,3.0,71,0.00,,---,0.00,VWS V14.01,2013-02-28 07:40:00,
2013-02-28 01:45:00,29.2,21.0,30.11,NNE,24,0.0,5.0,71,0.00,,---,0.00,VWS V14.01,2013-02-28 07:45:00,
2013-02-28 01:50:00,29.2,21.0,30.12,NNE,24,3.0,5.0,71,0.00,,---,0.00,VWS V14.01,2013-02-28 07:50:00,
2013-02-28 01:55:00,29.1,20.9,30.12,NNE,26,1.0,5.0,71,0.00,,---,0.00,VWS V14.01,2013-02-28 07:55:00,
2013-02-28 02:00:00,29.1,20.9,30.12,North,9,0.0,5.0,71,0.00,,---,0.00,VWS V14.01,2013-02-28 08:00:00,
2013-02-28 02:05:00,29.0,20.8,30.12,NNE,23,1.0,4.0,71,0.00,,---,0.00,VWS V14.01,2013-02-28 08:05:00,
2013-02-28 02:10:00,28.9,20.7,30.12,NNE,19,0.0,6.0,71,0.00,,---,0.00,VWS V14.01,2013-02-28 08:10:00,
2013-02-28 02:15:00,28.9,20.7,30.12,NNE,26,0.0,6.0,71,0.00,,---,0.00,VWS V14.01,2013-02-28 08:15:00,
2013-02-28 02:20:00,28.8,20.6,30.12,NNE,30,4.0,6.0,71,0.00,,---,0.00,VWS V14.01,2013-02-28 08:20:00,
2013-02-28 02:25:00,28.8,20.3,30.12,NNE,28,0.0,6.0,70,0.00,,---,0.00,VWS V14.01,2013-02-28 08:25:00,
2013-02-28 02:30:00,28.7,20.2,30.13,NNE,28,1.0,6.0,70,0.00,,---,0.00,VWS V14.01,2013-02-28 08:30:00,
2013-02-28 02:35:00,28.7,20.5,30.12,NNE,18,0.0,6.0,71,0.00,,---,0.00,VWS V14.01,2013-02-28 08:35:00,
2013-02-28 02:40:00,28.6,20.4,30.13,NNE,22,3.0,6.0,71,0.00,,---,0.00,VWS V14.01,2013-02-28 08:40:00,
2013-02-28 02:45:00,28.6,20.4,30.12,North,5,1.0,6.0,71,0.00,,---,0.00,VWS V14.01,2013-02-28 08:45:00,
2013-02-28 02:50:00,28.6,20.4,30.12,NNE,33,0.0,6.0,71,0.00,,---,0.00,VWS V14.01,2013-02-28 08:50:00,
2013-02-28 02:55:00,28.6,20.4,30.12,NNE,33,0.0,6.0,71,0.00,,---,0.00,VWS V14.01,2013-02-28 08:55:00,
2013-02-28 03:00:00,28.5,20.3,30.13,NNE,16,0.0,6.0,71,0.00,,---,0.00,VWS V14.01,2013-02-28 09:00:00,
2013-02-28 03:05:00,28.5,20.6,30.13,NNE,16,0.0,0.0,72,0.00,,---,0.00,VWS V14.01,2013-02-28 09:05:00,
2013-02-28 03:10:00,28.5,20.6,30.13,NE,34,1.0,6.0,72,0.00,,---,0.00,VWS V14.01,2013-02-28 09:10:00,
2013-02-28 03:15:00,28.5,20.6,30.13,North,5,2.0,7.0,72,0.00,,---,0.00,VWS V14.01,2013-02-28 09:15:00,
2013-02-28 03:20:00,28.5,20.6,30.13,North,9,0.0,7.0,72,0.00,,---,0.00,VWS V14.01,2013-02-28 09:20:00,
2013-02-28 03:25:00,28.4,20.5,30.13,NE,38,0.0,7.0,72,0.00,,---,0.00,VWS V14.01,2013-02-28 09:25:00,
2013-02-28 03:30:00,28.4,20.5,30.13,NNE,28,0.0,7.0,72,0.00,,---,0.00,VWS V14.01,2013-02-28 09:30:00,
2013-02-28 03:35:00,28.3,20.4,30.13,NE,36,0.0,4.0,72,0.00,,---,0.00,VWS V14.01,2013-02-28 09:35:00,
2013-02-28 03:40:00,28.3,20.4,30.14,NE,36,1.0,4.0,72,0.00,,---,0.00,VWS V14.01,2013-02-28 09:40:00,
2013-02-28 03:45:00,28.2,20.7,30.14,NE,36,0.0,4.0,73,0.00,,---,0.00,VWS V14.01,2013-02-28 09:45:00,
2013-02-28 03:50:00,28.2,20.7,30.14,NE,36,0.0,4.0,73,0.00,,---,0.00,VWS V14.01,2013-02-28 09:50:00,
2013-02-28 03:55:00,28.2,20.7,30.14,North,351,4.0,4.0,73,0.00,,---,0.00,VWS V14.01,2013-02-28 09:55:00,
2013-02-28 04:00:00,28.1,20.6,30.14,North,360,2.0,7.0,73,0.00,,---,0.00,VWS V14.01,2013-02-28 10:00:00,
2013-02-28 04:05:00,28.1,20.6,30.14,NNE,25,0.0,5.0,73,0.00,,---,0.00,VWS V14.01,2013-02-28 10:05:00,
2013-02-28 04:10:00,28.0,20.5,30.15,North,350,3.0,5.0,73,0.00,,---,0.00,VWS V14.01,2013-02-28 10:10:00,
2013-02-28 04:15:00,27.9,20.4,30.15,North,350,3.0,5.0,73,0.00,,---,0.00,VWS V14.01,2013-02-28 10:15:00,
2013-02-28 04:20:00,27.8,20.3,30.15,North,5,3.0,5.0,73,0.00,,---,0.00,VWS V14.01,2013-02-28 10:20:00,
2013-02-28 04:25:00,27.8,20.3,30.15,NNE,24,3.0,5.0,73,0.00,,---,0.00,VWS V14.01,2013-02-28 10:25:00,
2013-02-28 04:30:00,27.7,20.2,30.15,NE,41,1.0,7.0,73,0.00,,---,0.00,VWS V14.01,2013-02-28 10:30:00,
2013-02-28 04:35:00,27.6,20.1,30.15,NNE,31,0.0,3.0,73,0.00,,---,0.00,VWS V14.01,2013-02-28 10:35:00,
2013-02-28 04:40:00,27.6,20.1,30.15,NNE,30,1.0,4.0,73,0.00,,---,0.00,VWS V14.01,2013-02-28 10:40:00,
2013-02-28 04:45:00,27.6,20.1,30.16,NNE,30,4.0,4.0,73,0.00,,---,0.00,VWS V14.01,2013-02-28 10:45:00,
2013-02-28 04:50:00,27.6,20.1,30.16,NNE,30,0.0,4.0,73,0.00,,---,0.00,VWS V14.01,2013-02-28 10:50:00,
2013-02-28 04:55:00,27.6,20.4,30.16,NNE,31,0.0,4.0,74,0.00,,---,0.00,VWS V14.01,2013-02-28 10:55:00,
2013-02-28 05:00:00,27.5,20.3,30.16,NE,39,0.0,4.0,74,0.00,,---,0.00,VWS V14.01,2013-02-28 11:00:00,
2013-02-28 05:05:00,27.5,20.3,30.16,NE,38,0.0,2.0,74,0.00,,---,0.00,VWS V14.01,2013-02-28 11:05:00,
2013-02-28 05:10:00,27.5,20.3,30.16,North,11,3.0,3.0,74,0.00,,---,0.00,VWS V14.01,2013-02-28 11:10:00,
2013-02-28 05:15:00,27.4,20.2,30.16,North,360,0.0,4.0,74,0.00,,---,0.00,VWS V14.01,2013-02-28 11:15:00,
2013-02-28 05:20:00,27.4,20.2,30.16,North,11,0.0,4.0,74,0.00,,---,0.00,VWS V14.01,2013-02-28 11:20:00,
2013-02-28 05:25:00,27.3,20.1,30.16,NNE,13,0.0,4.0,74,0.00,,---,0.00,VWS V14.01,2013-02-28 11:25:00,
2013-02-28 05:30:00,27.3,20.1,30.16,North,5,0.0,4.0,74,0.00,,---,0.00,VWS V14.01,2013-02-28 11:30:00,
2013-02-28 05:35:00,27.2,20.0,30.17,NNE,28,0.0,4.0,74,0.00,,---,0.00,VWS V14.01,2013-02-28 11:35:00,
2013-02-28 05:40:00,27.2,20.0,30.16,NNE,32,0.0,4.0,74,0.00,,---,0.00,VWS V14.01,2013-02-28 11:40:00,
2013-02-28 05:45:00,27.2,20.0,30.17,North,9,0.0,4.0,74,0.00,,---,0.00,VWS V14.01,2013-02-28 11:45:00,
2013-02-28 05:50:00,27.1,19.9,30.17,NNE,26,0.0,4.0,74,0.00,,---,0.00,VWS V14.01,2013-02-28 11:50:00,
2013-02-28 05:55:00,27.1,19.9,30.17,NE,36,1.0,4.0,74,0.00,,---,0.00,VWS V14.01,2013-02-28 11:55:00,
2013-02-28 06:00:00,27.1,19.9,30.17,NNE,26,0.0,5.0,74,0.00,,---,0.00,VWS V14.01,2013-02-28 12:00:00,
2013-02-28 06:05:00,27.0,19.8,30.17,North,360,0.0,4.0,74,0.00,,---,0.00,VWS V14.01,2013-02-28 12:05:00,
2013-02-28 06:10:00,27.0,19.8,30.17,North,9,2.0,4.0,74,0.00,,---,0.00,VWS V14.01,2013-02-28 12:10:00,
2013-02-28 06:15:00,27.0,19.8,30.17,NNE,23,2.0,4.0,74,0.00,,---,0.00,VWS V14.01,2013-02-28 12:15:00,
2013-02-28 06:20:00,27.0,19.8,30.17,NNE,28,2.0,5.0,74,0.00,,---,0.00,VWS V14.01,2013-02-28 12:20:00,
2013-02-28 06:25:00,27.0,19.8,30.17,North,5,1.0,5.0,74,0.00,,---,0.00,VWS V14.01,2013-02-28 12:25:00,
2013-02-28 06:30:00,27.0,19.8,30.17,NNE,23,1.0,5.0,74,0.00,,---,0.00,VWS V14.01,2013-02-28 12:30:00,
2013-02-28 06:35:00,26.9,19.4,30.17,NNE,26,2.0,5.0,73,0.00,,---,0.00,VWS V14.01,2013-02-28 12:35:00,
2013-02-28 06:40:00,27.0,19.5,30.17,NE,46,0.0,5.0,73,0.00,,---,0.00,VWS V14.01,2013-02-28 12:40:00,
2013-02-28 06:45:00,26.9,19.4,30.17,NE,46,0.0,5.0,73,0.00,,---,0.00,VWS V14.01,2013-02-28 12:45:00,
2013-02-28 06:50:00,26.9,19.7,30.17,NE,46,0.0,5.0,74,0.00,,---,0.00,VWS V14.01,2013-02-28 12:50:00,
2013-02-28 06:55:00,26.9,19.7,30.18,NNE,13,0.0,5.0,74,0.00,,---,0.00,VWS V14.01,2013-02-28 12:55:00,
2013-02-28 07:00:00,26.9,19.7,30.18,NNE,13,0.0,5.0,74,0.00,,---,0.00,VWS V14.01,2013-02-28 13:00:00,
2013-02-28 07:05:00,26.8,19.6,30.18,NNE,13,0.0,0.0,74,0.00,,---,0.00,VWS V14.01,2013-02-28 13:05:00,
2013-02-28 07:10:00,26.8,19.6,30.18,NNE,28,0.0,3.0,74,0.00,,---,0.00,VWS V14.01,2013-02-28 13:10:00,
2013-02-28 07:15:00,26.8,19.6,30.18,NNE,28,0.0,3.0,74,0.00,,---,0.00,VWS V14.01,2013-02-28 13:15:00,
2013-02-28 07:20:00,26.8,19.6,30.18,North,349,0.0,3.0,74,0.00,,---,0.00,VWS V14.01,2013-02-28 13:20:00,
2013-02-28 07:25:00,26.8,19.3,30.18,NNE,32,3.0,5.0,73,0.00,,---,0.00,VWS V14.01,2013-02-28 13:25:00,
2013-02-28 07:30:00,26.8,19.0,30.18,NNE,24,0.0,5.0,72,0.00,,---,0.00,VWS V14.01,2013-02-28 13:30:00,
2013-02-28 07:35:00,26.9,19.1,30.18,NNE,24,0.0,4.0,72,0.00,,---,0.00,VWS V14.01,2013-02-28 13:35:00,
2013-02-28 07:40:00,26.9,19.4,30.18,NNE,24,0.0,4.0,73,0.00,,---,0.00,VWS V14.01,2013-02-28 13:40:00,
2013-02-28 07:45:00,26.9,19.4,30.18,NNE,24,0.0,4.0,73,0.00,,---,0.00,VWS V14.01,2013-02-28 13:45:00,
2013-02-28 07:50:00,26.9,19.1,30.18,NNE,24,0.0,4.0,72,0.00,,---,0.00,VWS V14.01,2013-02-28 13:50:00,
2013-02-28 07:55:00,26.9,19.1,30.19,NNE,24,0.0,4.0,72,0.00,,---,0.00,VWS V14.01,2013-02-28 13:55:00,
2013-02-28 08:00:00,26.9,19.1,30.19,NNE,24,1.0,4.0,72,0.00,,---,0.00,VWS V14.01,2013-02-28 14:00:00,
2013-02-28 08:05:00,27.0,19.2,30.19,NNE,24,0.0,1.0,72,0.00,,---,0.00,VWS V14.01,2013-02-28 14:05:00,
2013-02-28 08:10:00,27.0,19.2,30.19,NNE,22,0.0,4.0,72,0.00,,---,0.00,VWS V14.01,2013-02-28 14:10:00,
2013-02-28 08:15:00,27.0,19.2,30.19,NNE,22,2.0,4.0,72,0.00,,---,0.00,VWS V14.01,2013-02-28 14:15:00,
2013-02-28 08:20:00,27.0,19.2,30.19,NNE,24,0.0,5.0,72,0.00,,---,0.00,VWS V14.01,2013-02-28 14:20:00,
2013-02-28 08:25:00,27.0,19.5,30.19,NNE,24,0.0,5.0,73,0.00,,---,0.00,VWS V14.01,2013-02-28 14:25:00,
2013-02-28 08:30:00,27.0,19.5,30.19,NNE,24,0.0,5.0,73,0.00,,---,0.00,VWS V14.01,2013-02-28 14:30:00,
2013-02-28 08:35:00,27.1,19.6,30.19,NNE,24,0.0,1.0,73,0.00,,---,0.00,VWS V14.01,2013-02-28 14:35:00,
2013-02-28 08:40:00,27.1,19.3,30.19,North,360,1.0,3.0,72,0.00,,---,0.00,VWS V14.01,2013-02-28 14:40:00,
2013-02-28 08:45:00,27.1,19.3,30.19,NNE,18,0.0,3.0,72,0.00,,---,0.00,VWS V14.01,2013-02-28 14:45:00,
2013-02-28 08:50:00,27.1,19.3,30.19,NE,38,1.0,3.0,72,0.00,,---,0.00,VWS V14.01,2013-02-28 14:50:00,
2013-02-28 08:55:00,27.1,19.3,30.19,NE,39,3.0,3.0,72,0.00,,---,0.00,VWS V14.01,2013-02-28 14:55:00,
2013-02-28 09:00:00,27.1,19.0,30.20,NE,44,0.0,3.0,71,0.00,,---,0.00,VWS V14.01,2013-02-28 15:00:00,
2013-02-28 09:05:00,27.1,19.0,30.19,NNE,33,2.0,5.0,71,0.00,,---,0.00,VWS V14.01,2013-02-28 15:05:00,
2013-02-28 09:10:00,27.1,19.0,30.20,NNE,32,1.0,5.0,71,0.00,,---,0.00,VWS V14.01,2013-02-28 15:10:00,
2013-02-28 09:15:00,27.0,18.9,30.20,NNE,24,0.0,5.0,71,0.00,,---,0.00,VWS V14.01,2013-02-28 15:15:00,
2013-02-28 09:20:00,27.0,18.5,30.20,NNE,26,3.0,5.0,70,0.00,,---,0.00,VWS V14.01,2013-02-28 15:20:00,
2013-02-28 09:25:00,26.9,18.4,30.20,North,349,4.0,5.0,70,0.00,,---,0.00,VWS V14.01,2013-02-28 15:25:00,
2013-02-28 09:30:00,26.9,18.4,30.20,ENE,75,0.0,5.0,70,0.00,,---,0.00,VWS V14.01,2013-02-28 15:30:00,
2013-02-28 09:35:00,26.9,18.4,30.20,NE,49,2.0,4.0,70,0.00,,---,0.00,VWS V14.01,2013-02-28 15:35:00,
2013-02-28 09:40:00,26.9,18.1,30.21,NNE,14,2.0,5.0,69,0.00,,---,0.00,VWS V14.01,2013-02-28 15:40:00,
2013-02-28 09:45:00,27.0,18.2,30.20,NNE,32,3.0,5.0,69,0.00,,---,0.00,VWS V14.01,2013-02-28 15:45:00,
2013-02-28 09:50:00,27.0,18.2,30.20,NNE,33,0.0,5.0,69,0.00,,---,0.00,VWS V14.01,2013-02-28 15:50:00,
2013-02-28 09:55:00,27.1,18.3,30.21,NNE,26,0.0,5.0,69,0.00,,---,0.00,VWS V14.01,2013-02-28 15:55:00,
2013-02-28 10:00:00,27.2,18.0,30.21,NE,53,0.0,5.0,68,0.00,,---,0.00,VWS V14.01,2013-02-28 16:00:00,
2013-02-28 10:05:00,27.4,18.6,30.21,NE,53,0.0,2.0,69,0.00,,---,0.00,VWS V14.01,2013-02-28 16:05:00,
2013-02-28 10:10:00,27.5,18.3,30.21,NE,53,0.0,2.0,68,0.00,,---,0.00,VWS V14.01,2013-02-28 16:10:00,
2013-02-28 10:15:00,27.7,18.9,30.21,NNE,24,1.0,2.0,69,0.00,,---,0.00,VWS V14.01,2013-02-28 16:15:00,
2013-02-28 10:20:00,27.6,18.8,30.21,North,355,1.0,5.0,69,0.00,,---,0.00,VWS V14.01,2013-02-28 16:20:00,
2013-02-28 10:25:00,27.6,18.8,30.21,NNE,15,0.0,5.0,69,0.00,,---,0.00,VWS V14.01,2013-02-28 16:25:00,
2013-02-28 10:30:00,27.7,18.9,30.21,North,9,2.0,5.0,69,0.00,,---,0.00,VWS V14.01,2013-02-28 16:30:00,
2013-02-28 10:35:00,27.6,18.8,30.21,NNE,22,4.0,5.0,69,0.00,,---,0.00,VWS V14.01,2013-02-28 16:35:00,
2013-02-28 10:40:00,27.6,18.8,30.21,NE,36,1.0,5.0,69,0.00,,---,0.00,VWS V14.01,2013-02-28 16:40:00,
2013-02-28 10:45:00,27.6,18.8,30.21,North,360,0.0,5.0,69,0.00,,---,0.00,VWS V14.01,2013-02-28 16:45:00,
2013-02-28 10:50:00,27.6,18.4,30.21,NNE,24,1.0,5.0,68,0.00,,---,0.00,VWS V14.01,2013-02-28 16:50:00,
2013-02-28 10:55:00,27.6,18.4,30.22,NNE,25,0.0,5.0,68,0.00,,---,0.00,VWS V14.01,2013-02-28 16:55:00,
2013-02-28 11:00:00,27.7,18.9,30.22,NE,49,0.0,5.0,69,0.00,,---,0.00,VWS V14.01,2013-02-28 17:00:00,
2013-02-28 11:05:00,27.9,19.1,30.22,North,360,0.0,4.0,69,0.00,,---,0.00,VWS V14.01,2013-02-28 17:05:00,
2013-02-28 11:10:00,28.1,18.9,30.22,NNE,32,1.0,4.0,68,0.00,,---,0.00,VWS V14.01,2013-02-28 17:10:00,
2013-02-28 11:15:00,28.1,18.6,30.22,NNE,25,2.0,4.0,67,0.00,,---,0.00,VWS V14.01,2013-02-28 17:15:00,
2013-02-28 11:20:00,28.0,18.8,30.22,NNE,25,1.0,4.0,68,0.00,,---,0.00,VWS V14.01,2013-02-28 17:20:00,
2013-02-28 11:25:00,28.0,18.8,30.22,North,5,0.0,4.0,68,0.00,,---,0.00,VWS V14.01,2013-02-28 17:25:00,
2013-02-28 11:30:00,28.0,18.8,30.22,NE,40,1.0,4.0,68,0.00,,---,0.00,VWS V14.01,2013-02-28 17:30:00,
2013-02-28 11:35:00,28.2,19.0,30.23,NE,40,0.0,2.0,68,0.00,,---,0.00,VWS V14.01,2013-02-28 17:35:00,
2013-02-28 11:40:00,28.2,19.0,30.22,NE,40,1.0,3.0,68,0.00,,---,0.00,VWS V14.01,2013-02-28 17:40:00,
2013-02-28 11:45:00,28.2,19.0,30.23,NE,40,0.0,3.0,68,0.00,,---,0.00,VWS V14.01,2013-02-28 17:45:00,
2013-02-28 11:50:00,28.1,18.9,30.23,NE,38,1.0,4.0,68,0.00,,---,0.00,VWS V14.01,2013-02-28 17:50:00,
2013-02-28 11:55:00,27.9,18.7,30.23,NE,41,2.0,4.0,68,0.00,,---,0.00,VWS V14.01,2013-02-28 17:55:00,
2013-02-28 12:00:00,27.8,18.6,30.23,NNE,30,1.0,5.0,68,0.00,,---,0.00,VWS V14.01,2013-02-28 18:00:00,
2013-02-28 12:05:00,27.7,18.5,30.23,North,360,5.0,6.0,68,0.00,,---,0.00,VWS V14.01,2013-02-28 18:05:00,
2013-02-28 12:10:00,27.5,18.3,30.23,NE,41,0.0,6.0,68,0.00,,---,0.00,VWS V14.01,2013-02-28 18:10:00,
2013-02-28 12:15:00,27.6,18.8,30.23,NNE,32,0.0,6.0,69,0.00,,---,0.00,VWS V14.01,2013-02-28 18:15:00,
2013-02-28 12:20:00,27.7,18.5,30.23,NE,34,2.0,6.0,68,0.00,,---,0.00,VWS V14.01,2013-02-28 18:20:00,
2013-02-28 12:25:00,27.7,18.5,30.23,NNE,21,0.0,6.0,68,0.00,,---,0.00,VWS V14.01,2013-02-28 18:25:00,
2013-02-28 12:30:00,27.6,18.8,30.23,North,360,3.0,6.0,69,0.00,,---,0.00,VWS V14.01,2013-02-28 18:30:00,
2013-02-28 12:35:00,27.5,18.7,30.23,North,9,3.0,6.0,69,0.00,,---,0.00,VWS V14.01,2013-02-28 18:35:00,
2013-02-28 12:40:00,27.5,18.7,30.22,NE,38,1.0,6.0,69,0.00,,---,0.00,VWS V14.01,2013-02-28 18:40:00,
2013-02-28 12:45:00,27.6,18.8,30.23,NNE,22,0.0,6.0,69,0.00,,---,0.00,VWS V14.01,2013-02-28 18:45:00,
2013-02-28 12:50:00,27.7,18.5,30.22,NE,56,0.0,6.0,68,0.00,,---,0.00,VWS V14.01,2013-02-28 18:50:00,
2013-02-28 12:55:00,27.8,18.6,30.22,ENE,57,0.0,6.0,68,0.00,,---,0.00,VWS V14.01,2013-02-28 18:55:00,
2013-02-28 13:00:00,27.9,18.7,30.22,ENE,63,1.0,6.0,68,0.00,,---,0.00,VWS V14.01,2013-02-28 19:00:00,
2013-02-28 13:05:00,27.9,18.7,30.22,NE,48,0.0,4.0,68,0.00,,---,0.00,VWS V14.01,2013-02-28 19:05:00,
2013-02-28 13:10:00,28.0,19.2,30.22,NE,48,0.0,4.0,69,0.00,,---,0.00,VWS V14.01,2013-02-28 19:10:00,
2013-02-28 13:15:00,28.0,18.8,30.22,NE,49,0.0,4.0,68,0.00,,---,0.00,VWS V14.01,2013-02-28 19:15:00,
2013-02-28 13:20:00,28.1,18.9,30.22,NE,49,0.0,4.0,68,0.00,,---,0.00,VWS V14.01,2013-02-28 19:20:00,
2013-02-28 13:25:00,28.1,18.9,30.22,NE,49,0.0,4.0,68,0.00,,---,0.00,VWS V14.01,2013-02-28 19:25:00,
2013-02-28 13:30:00,28.1,18.6,30.22,NE,53,0.0,4.0,67,0.00,,---,0.00,VWS V14.01,2013-02-28 19:30:00,
2013-02-28 13:35:00,28.1,18.6,30.22,NE,53,0.0,1.0,67,0.00,,---,0.00,VWS V14.01,2013-02-28 19:35:00,
2013-02-28 13:40:00,28.1,18.9,30.22,NE,53,0.0,1.0,68,0.00,,---,0.00,VWS V14.01,2013-02-28 19:40:00,
2013-02-28 13:45:00,28.0,18.5,30.22,NNE,32,0.0,4.0,67,0.00,,---,0.00,VWS V14.01,2013-02-28 19:45:00,
2013-02-28 13:50:00,28.1,18.6,30.22,NE,40,0.0,4.0,67,0.00,,---,0.00,VWS V14.01,2013-02-28 19:50:00,
2013-02-28 13:55:00,28.1,18.6,30.22,NE,51,0.0,4.0,67,0.00,,---,0.00,VWS V14.01,2013-02-28 19:55:00,
2013-02-28 14:00:00,28.3,18.4,30.22,NE,51,0.0,4.0,66,0.00,,---,0.00,VWS V14.01,2013-02-28 20:00:00,
2013-02-28 14:05:00,28.3,18.8,30.22,NE,51,1.0,1.0,67,0.00,,---,0.00,VWS V14.01,2013-02-28 20:05:00,
2013-02-28 14:10:00,28.4,18.9,30.22,NE,42,3.0,3.0,67,0.00,,---,0.00,VWS V14.01,2013-02-28 20:10:00,
2013-02-28 14:15:00,28.5,18.6,30.22,NE,42,0.0,3.0,66,0.00,,---,0.00,VWS V14.01,2013-02-28 20:15:00,
2013-02-28 14:20:00,28.5,18.2,30.22,NE,42,0.0,3.0,65,0.00,,---,0.00,VWS V14.01,2013-02-28 20:20:00,
2013-02-28 14:25:00,28.7,18.8,30.22,NE,42,0.0,3.0,66,0.00,,---,0.00,VWS V14.01,2013-02-28 20:25:00,
2013-02-28 14:30:00,28.8,18.9,30.22,NE,42,0.0,3.0,66,0.00,,---,0.00,VWS V14.01,2013-02-28 20:30:00,
2013-02-28 14:35:00,28.9,19.0,30.22,NE,43,1.0,1.0,66,0.00,,---,0.00,VWS V14.01,2013-02-28 20:35:00,
2013-02-28 14:40:00,28.8,18.9,30.22,North,355,0.0,2.0,66,0.00,,---,0.00,VWS V14.01,2013-02-28 20:40:00,
2013-02-28 14:45:00,28.8,18.9,30.22,NE,35,0.0,3.0,66,0.00,,---,0.00,VWS V14.01,2013-02-28 20:45:00,
2013-02-28 14:50:00,28.8,18.9,30.22,NE,34,0.0,3.0,66,0.00,,---,0.00,VWS V14.01,2013-02-28 20:50:00,
2013-02-28 14:55:00,28.8,18.5,30.22,NE,35,0.0,3.0,65,0.00,,---,0.00,VWS V14.01,2013-02-28 20:55:00,
2013-02-28 15:00:00,28.7,18.4,30.22,NE,34,0.0,3.0,65,0.00,,---,0.00,VWS V14.01,2013-02-28 21:00:00,
2013-02-28 15:05:00,28.7,18.8,30.22,NE,34,3.0,3.0,66,0.00,,---,0.00,VWS V14.01,2013-02-28 21:05:00,
2013-02-28 15:10:00,28.6,18.7,30.22,North,10,0.0,3.0,66,0.00,,---,0.00,VWS V14.01,2013-02-28 21:10:00,
2013-02-28 15:15:00,28.5,19.0,30.22,NNE,21,0.0,4.0,67,0.00,,---,0.00,VWS V14.01,2013-02-28 21:15:00,
2013-02-28 15:20:00,28.4,18.5,30.23,NNE,24,1.0,4.0,66,0.00,,---,0.00,VWS V14.01,2013-02-28 21:20:00,
2013-02-28 15:25:00,28.3,18.8,30.23,NNE,26,2.0,4.0,67,0.00,,---,0.00,VWS V14.01,2013-02-28 21:25:00,
2013-02-28 15:30:00,28.2,18.7,30.23,NNE,17,0.0,4.0,67,0.00,,---,0.00,VWS V14.01,2013-02-28 21:30:00,
2013-02-28 15:35:00,28.2,18.3,30.23,NNE,15,0.0,4.0,66,0.00,,---,0.00,VWS V14.01,2013-02-28 21:35:00,
2013-02-28 15:40:00,28.2,18.3,30.22,North,10,0.0,5.0,66,0.00,,---,0.00,VWS V14.01,2013-02-28 21:40:00,
2013-02-28 15:45:00,28.2,18.3,30.23,NNE,17,2.0,5.0,66,0.00,,---,0.00,VWS V14.01,2013-02-28 21:45:00,
2013-02-28 15:50:00,28.2,18.7,30.23,NNE,26,2.0,5.0,67,0.00,,---,0.00,VWS V14.01,2013-02-28 21:50:00,
2013-02-28 15:55:00,28.2,18.3,30.23,NNE,23,0.0,5.0,66,0.00,,---,0.00,VWS V14.01,2013-02-28 21:55:00,
2013-02-28 16:00:00,28.3,18.4,30.23,NNE,28,0.0,5.0,66,0.00,,---,0.00,VWS V14.01,2013-02-28 22:00:00,
2013-02-28 16:05:00,28.1,18.2,30.23,NNE,22,0.0,5.0,66,0.00,,---,0.00,VWS V14.01,2013-02-28 22:05:00,
2013-02-28 16:10:00,28.0,18.5,30.24,NNE,22,0.0,5.0,67,0.00,,---,0.00,VWS V14.01,2013-02-28 22:10:00,
2013-02-28 16:15:00,28.1,18.2,30.23,NE,36,1.0,5.0,66,0.00,,---,0.00,VWS V14.01,2013-02-28 22:15:00,
2013-02-28 16:20:00,28.1,18.2,30.23,NE,41,0.0,5.0,66,0.00,,---,0.00,VWS V14.01,2013-02-28 22:20:00,
2013-02-28 16:25:00,28.1,18.2,30.23,NE,41,0.0,5.0,66,0.00,,---,0.00,VWS V14.01,2013-02-28 22:25:00,
2013-02-28 16:30:00,28.1,18.2,30.23,NE,41,0.0,5.0,66,0.00,,---,0.00,VWS V14.01,2013-02-28 22:30:00,
2013-02-28 16:35:00,28.0,18.1,30.23,NE,41,0.0,2.0,66,0.00,,---,0.00,VWS V14.01,2013-02-28 22:35:00,
2013-02-28 16:40:00,27.9,18.0,30.23,NE,41,0.0,2.0,66,0.00,,---,0.00,VWS V14.01,2013-02-28 22:40:00,
2013-02-28 16:45:00,27.8,17.6,30.24,NE,41,0.0,2.0,65,0.00,,---,0.00,VWS V14.01,2013-02-28 22:45:00,
2013-02-28 16:50:00,27.7,17.1,30.24,NNE,23,0.0,3.0,64,0.00,,---,0.00,VWS V14.01,2013-02-28 22:50:00,
2013-02-28 16:55:00,27.6,17.0,30.24,NNE,23,0.0,3.0,64,0.00,,---,0.00,VWS V14.01,2013-02-28 22:55:00,
2013-02-28 17:00:00,27.6,17.0,30.23,NNE,23,0.0,3.0,64,0.00,,---,0.00,VWS V14.01,2013-02-28 23:00:00,
2013-02-28 17:05:00,27.5,16.9,30.24,NNE,23,0.0,1.0,64,0.00,,---,0.00,VWS V14.01,2013-02-28 23:05:00,
2013-02-28 17:10:00,27.4,17.2,30.24,NNE,22,0.0,1.0,65,0.00,,---,0.00,VWS V14.01,2013-02-28 23:10:00,
2013-02-28 17:15:00,27.3,17.1,30.24,NNE,23,0.0,1.0,65,0.00,,---,0.00,VWS V14.01,2013-02-28 23:15:00,
2013-02-28 17:20:00,27.2,17.4,30.24,NNE,23,0.0,1.0,66,0.00,,---,0.00,VWS V14.01,2013-02-28 23:20:00,
2013-02-28 17:25:00,27.1,17.3,30.24,NNE,23,0.0,1.0,66,0.00,,---,0.00,VWS V14.01,2013-02-28 23:25:00,
2013-02-28 17:30:00,27.0,17.2,30.24,NNE,22,0.0,1.0,66,0.00,,---,0.00,VWS V14.01,2013-02-28 23:30:00,
2013-02-28 17:35:00,26.8,17.0,30.24,NNE,23,0.0,0.0,66,0.00,,---,0.00,VWS V14.01,2013-02-28 23:35:00,
2013-02-28 17:40:00,26.6,16.8,30.24,NNE,23,0.0,0.0,66,0.00,,---,0.00,VWS V14.01,2013-02-28 23:40:00,
2013-02-28 17:45:00,26.5,16.7,30.24,NNE,22,0.0,0.0,66,0.00,,---,0.00,VWS V14.01,2013-02-28 23:45:00,
2013-02-28 17:50:00,26.3,16.9,30.25,NNE,22,0.0,0.0,67,0.00,,---,0.00,VWS V14.01,2013-02-28 23:50:00,
2013-02-28 17:55:00,26.2,16.8,30.25,NNE,22,0.0,0.0,67,0.00,,---,0.00,VWS V14.01,2013-02-28 23:55:00,
2013-02-28 18:00:00,26.0,16.6,30.25,NNE,22,0.0,0.0,67,0.00,,---,0.00,VWS V14.01,2013-03-01 00:00:00,
2013-02-28 18:05:00,25.7,16.3,30.25,NNE,23,0.0,0.0,67,0.00,,---,0.00,VWS V14.01,2013-03-01 00:05:00,
2013-02-28 18:10:00,25.4,16.3,30.25,NNE,23,0.0,0.0,68,0.00,,---,0.00,VWS V14.01,2013-03-01 00:10:00,
2013-02-28 18:15:00,25.2,16.1,30.25,NNE,23,0.0,0.0,68,0.00,,---,0.00,VWS V14.01,2013-03-01 00:15:00,
2013-02-28 18:20:00,25.0,15.9,30.25,NNE,23,0.0,0.0,68,0.00,,---,0.00,VWS V14.01,2013-03-01 00:20:00,
2013-02-28 18:25:00,24.7,16.0,30.25,NNE,23,0.0,0.0,69,0.00,,---,0.00,VWS V14.01,2013-03-01 00:25:00,
2013-02-28 18:30:00,24.6,15.9,30.25,NNE,22,0.0,0.0,69,0.00,,---,0.00,VWS V14.01,2013-03-01 00:30:00,
2013-02-28 18:35:00,24.3,15.6,30.26,NNE,22,0.0,0.0,69,0.00,,---,0.00,VWS V14.01,2013-03-01 00:35:00,
2013-02-28 18:40:00,24.0,15.6,30.26,NNE,23,0.0,0.0,70,0.00,,---,0.00,VWS V14.01,2013-03-01 00:40:00,
2013-02-28 18:45:00,23.8,15.5,30.26,NNE,23,0.0,0.0,70,0.00,,---,0.00,VWS V14.01,2013-03-01 00:45:00,
2013-02-28 18:50:00,23.4,15.1,30.26,NNE,22,0.0,0.0,70,0.00,,---,0.00,VWS V14.01,2013-03-01 00:50:00,
2013-02-28 18:55:00,23.1,15.1,30.26,NNE,23,0.0,0.0,71,0.00,,---,0.00,VWS V14.01,2013-03-01 00:55:00,
2013-02-28 19:00:00,22.7,14.7,30.26,NNE,22,0.0,0.0,71,0.00,,---,0.00,VWS V14.01,2013-03-01 01:00:00,
2013-02-28 19:05:00,22.3,14.7,30.26,NNE,23,0.0,0.0,72,0.00,,---,0.00,VWS V14.01,2013-03-01 01:05:00,
2013-02-28 19:10:00,21.9,14.3,30.26,NNE,23,0.0,0.0,72,0.00,,---,0.00,VWS V14.01,2013-03-01 01:10:00,
2013-02-28 19:15:00,21.5,14.2,30.26,NNE,23,0.0,0.0,73,0.00,,---,0.00,VWS V14.01,2013-03-01 01:15:00,
2013-02-28 19:20:00,21.2,14.2,30.26,NNE,23,0.0,0.0,74,0.00,,---,0.00,VWS V14.01,2013-03-01 01:20:00,
2013-02-28 19:25:00,20.8,13.8,30.26,NNE,23,0.0,0.0,74,0.00,,---,0.00,VWS V14.01,2013-03-01 01:25:00,
2013-02-28 19:30:00,20.5,13.9,30.26,NNE,22,0.0,0.0,75,0.00,,---,0.00,VWS V14.01,2013-03-01 01:30:00,
2013-02-28 19:35:00,20.2,13.9,30.26,NNE,23,0.0,0.0,76,0.00,,---,0.00,VWS V14.01,2013-03-01 01:35:00,
2013-02-28 19:40:00,19.9,13.6,30.26,NNE,23,0.0,0.0,76,0.00,,---,0.00,VWS V14.01,2013-03-01 01:40:00,
2013-02-28 19:45:00,19.7,13.4,30.26,NNE,23,0.0,0.0,76,0.00,,---,0.00,VWS V14.01,2013-03-01 01:45:00,
2013-02-28 19:50:00,19.4,13.4,30.27,NNE,22,0.0,0.0,77,0.00,,---,0.00,VWS V14.01,2013-03-01 01:50:00,
2013-02-28 19:55:00,19.1,13.1,30.27,NNE,23,0.0,0.0,77,0.00,,---,0.00,VWS V14.01,2013-03-01 01:55:00,
2013-02-28 20:00:00,18.9,13.2,30.27,NNE,23,0.0,0.0,78,0.00,,---,0.00,VWS V14.01,2013-03-01 02:00:00,
2013-02-28 20:05:00,18.7,13.0,30.27,NNE,22,0.0,0.0,78,0.00,,---,0.00,VWS V14.01,2013-03-01 02:05:00,
2013-02-28 20:10:00,18.6,13.2,30.27,NNE,23,0.0,0.0,79,0.00,,---,0.00,VWS V14.01,2013-03-01 02:10:00,
2013-02-28 20:15:00,18.5,13.1,30.27,NNE,23,0.0,0.0,79,0.00,,---,0.00,VWS V14.01,2013-03-01 02:15:00,
2013-02-28 20:20:00,18.6,13.2,30.27,NNE,23,0.0,0.0,79,0.00,,---,0.00,VWS V14.01,2013-03-01 02:20:00,
2013-02-28 20:25:00,18.7,13.3,30.27,NNE,23,0.0,0.0,79,0.00,,---,0.00,VWS V14.01,2013-03-01 02:25:00,
2013-02-28 20:30:00,19.1,14.0,30.27,NNE,22,0.0,0.0,80,0.00,,---,0.00,VWS V14.01,2013-03-01 02:30:00,
2013-02-28 20:35:00,19.7,14.3,30.27,NNE,22,0.0,0.0,79,0.00,,---,0.00,VWS V14.01,2013-03-01 02:35:00,
2013-02-28 20:40:00,19.7,14.0,30.27,NNE,23,0.0,0.0,78,0.00,,---,0.00,VWS V14.01,2013-03-01 02:40:00,
2013-02-28 20:45:00,19.7,14.0,30.27,NNE,23,0.0,0.0,78,0.00,,---,0.00,VWS V14.01,2013-03-01 02:45:00,
2013-02-28 20:50:00,20.0,14.0,30.27,NNE,23,0.0,0.0,77,0.00,,---,0.00,VWS V14.01,2013-03-01 02:50:00,
2013-02-28 20:55:00,20.1,14.1,30.27,NNE,22,0.0,0.0,77,0.00,,---,0.00,VWS V14.01,2013-03-01 02:55:00,
2013-02-28 21:00:00,20.3,14.0,30.27,NNE,23,0.0,0.0,76,0.00,,---,0.00,VWS V14.01,2013-03-01 03:00:00,
2013-02-28 21:05:00,20.3,14.0,30.27,NNE,23,0.0,0.0,76,0.00,,---,0.00,VWS V14.01,2013-03-01 03:05:00,
2013-02-28 21:10:00,20.2,13.9,30.27,NNE,22,0.0,0.0,76,0.00,,---,0.00,VWS V14.01,2013-03-01 03:10:00,
2013-02-28 21:15:00,20.2,13.9,30.27,NNE,22,0.0,0.0,76,0.00,,---,0.00,VWS V14.01,2013-03-01 03:15:00,
2013-02-28 21:20:00,19.9,13.6,30.27,NNE,23,0.0,0.0,76,0.00,,---,0.00,VWS V14.01,2013-03-01 03:20:00,
2013-02-28 21:25:00,19.7,13.1,30.28,NNE,23,0.0,0.0,75,0.00,,---,0.00,VWS V14.01,2013-03-01 03:25:00,
2013-02-28 21:30:00,19.3,13.0,30.27,NNE,23,0.0,0.0,76,0.00,,---,0.00,VWS V14.01,2013-03-01 03:30:00,
2013-02-28 21:35:00,18.9,12.6,30.28,NNE,22,0.0,0.0,76,0.00,,---,0.00,VWS V14.01,2013-03-01 03:35:00,
2013-02-28 21:40:00,18.5,12.2,30.28,NNE,22,0.0,0.0,76,0.00,,---,0.00,VWS V14.01,2013-03-01 03:40:00,
2013-02-28 21:45:00,18.1,11.8,30.28,NNE,23,0.0,0.0,76,0.00,,---,0.00,VWS V14.01,2013-03-01 03:45:00,
2013-02-28 21:50:00,17.7,11.4,30.28,NNE,23,0.0,0.0,76,0.00,,---,0.00,VWS V14.01,2013-03-01 03:50:00,
2013-02-28 21:55:00,17.4,11.4,30.28,NNE,23,0.0,0.0,77,0.00,,---,0.00,VWS V14.01,2013-03-01 03:55:00,
2013-02-28 22:00:00,17.2,11.2,30.29,NNE,23,0.0,0.0,77,0.00,,---,0.00,VWS V14.01,2013-03-01 04:00:00,
2013-02-28 22:05:00,17.6,12.2,30.29,NNE,23,0.0,0.0,79,0.00,,---,0.00,VWS V14.01,2013-03-01 04:05:00,
2013-02-28 22:10:00,18.4,13.0,30.29,NNE,22,0.0,0.0,79,0.00,,---,0.00,VWS V14.01,2013-03-01 04:10:00,
2013-02-28 22:15:00,19.5,13.8,30.29,NNE,23,0.0,0.0,78,0.00,,---,0.00,VWS V14.01,2013-03-01 04:15:00,
2013-02-28 22:20:00,20.4,14.1,30.30,NNE,22,0.0,0.0,76,0.00,,---,0.00,VWS V14.01,2013-03-01 04:20:00,
2013-02-28 22:25:00,21.0,14.0,30.30,NNE,23,0.0,0.0,74,0.00,,---,0.00,VWS V14.01,2013-03-01 04:25:00,
2013-02-28 22:30:00,21.0,13.7,30.30,NNE,22,0.0,0.0,73,0.00,,---,0.00,VWS V14.01,2013-03-01 04:30:00,
2013-02-28 22:35:00,20.6,13.3,30.30,NNE,23,0.0,0.0,73,0.00,,---,0.00,VWS V14.01,2013-03-01 04:35:00,
2013-02-28 22:40:00,20.3,13.0,30.30,NNE,23,0.0,0.0,73,0.00,,---,0.00,VWS V14.01,2013-03-01 04:40:00,
2013-02-28 22:45:00,20.0,13.1,30.29,NNE,23,0.0,0.0,74,0.00,,---,0.00,VWS V14.01,2013-03-01 04:45:00,
2013-02-28 22:50:00,19.7,12.8,30.29,NNE,22,0.0,0.0,74,0.00,,---,0.00,VWS V14.01,2013-03-01 04:50:00,
2013-02-28 22:55:00,19.6,12.7,30.29,NNE,23,0.0,0.0,74,0.00,,---,0.00,VWS V14.01,2013-03-01 04:55:00,
2013-02-28 23:00:00,19.4,12.8,30.29,NNE,22,0.0,0.0,75,0.00,,---,0.00,VWS V14.01,2013-03-01 05:00:00,
2013-02-28 23:05:00,19.2,12.6,30.30,NNE,22,0.0,0.0,75,0.00,,---,0.00,VWS V14.01,2013-03-01 05:05:00,
2013-02-28 23:06:00,19.2,12.6,30.30,NNE,23,0.0,0.0,75,0.00,,---,0.00,VWS V14.01,2013-03-01 05:06:00,
2013-02-28 23:11:00,19.0,12.4,30.30,NNE,23,0.0,0.0,75,0.00,,---,0.00,VWS V14.01,2013-03-01 05:11:00,
2013-02-28 23:16:00,18.8,12.5,30.30,NNE,22,0.0,0.0,76,0.00,,---,0.00,VWS V14.01,2013-03-01 05:16:00,
2013-02-28 23:21:00,18.7,12.4,30.30,NNE,22,0.0,0.0,76,0.00,,---,0.00,VWS V14.01,2013-03-01 05:21:00,
2013-02-28 23:26:00,18.7,12.4,30.30,NNE,22,0.0,0.0,76,0.00,,---,0.00,VWS V14.01,2013-03-01 05:26:00,
2013-02-28 23:30:00,16.8,11.1,30.31,NNE,23,0.0,0.0,78,0.00,,---,0.00,VWS V14.01,2013-03-01 05:30:00,
2013-02-28 23:31:00,18.5,12.2,30.31,NNE,23,0.0,0.0,76,0.00,,---,0.00,VWS V14.01,2013-03-01 05:31:00,
2013-02-28 23:36:00,18.2,11.9,30.31,NNE,23,0.0,0.0,76,0.00,,---,0.00,VWS V14.01,2013-03-01 05:36:00,
2013-02-28 23:41:00,17.9,11.6,30.30,NNE,23,0.0,0.0,76,0.00,,---,0.00,VWS V14.01,2013-03-01 05:41:00,
2013-02-28 23:46:00,17.8,12.1,30.30,NNE,23,0.0,0.0,78,0.00,,---,0.00,VWS V14.01,2013-03-01 05:46:00,
2013-02-28 23:51:00,18.0,12.6,30.30,NNE,23,0.0,0.0,79,0.00,,---,0.00,VWS V14.01,2013-03-01 05:51:00,
2013-02-28 23:56:00,18.5,13.1,30.30,NNE,22,0.0,0.0,79,0.00,,---,0.00,VWS V14.01,2013-03-01 05:56:00,